Albuquerque, NM

1:26 AM MST on January 19, 2018 (GMT -0700)
Albuquerque International Sunport

Weather History for KABQ - April, 2013

Change the Weather History Date:

Tuesday, April 23, 2013

  Actual Average Record
Temperature  
Mean Temperature 55 °F 58 °F  
Max Temperature 69 °F 71 °F 85 °F (2002)
Min Temperature 40 °F 45 °F 24 °F (1895)
Degree Days  
Heating Degree Days 10 7  
Month to date heating degree days 203 235  
Since 1 July heating degree days 3808 4062  
Cooling Degree Days 0 0  
Month to date cooling degree days 2 0  
Year to date cooling degree days 2 0  
Growing Degree Days 6 (Base 50)    
Moisture  
Dew Point 16 °F    
Average Humidity 26    
Maximum Humidity 46    
Minimum Humidity 5    
Precipitation  
Precipitation 0.00 in 0.02 in 1.32 in (1905)
Month to date precipitation 0.08 0.49  
Year to date precipitation 0.60 1.92  
Snow  
Snow 0.00 in - - ()
Month to date snowfall T  
Since 1 July snowfall 3.5  
Snow Depth 0.00 in    
Sea Level Pressure  
Sea Level Pressure 29.80 in    
Wind  
Wind Speed 13 mph (North)    
Max Wind Speed 36 mph    
Max Gust Speed 44 mph    
Visibility 10 miles    
Events      
T = Trace of Precipitation, MM = Missing Value Source: NWS Daily Summary

Daily Weather History Graph

Daily Weather History Graph

Search for Another Location

Airport or City:

Trip Planner

Search our weather history database for the weather conditions in past years. The results will help you decide how hot, cold, wet, or windy it might be!

Date:

Astronomy

Apr. 23, 2013 Rise Set
Actual Time 6:24 AM MDT 7:45 PM MDT
Civil Twilight 5:57 AM MDT 8:12 PM MDT
Nautical Twilight 5:25 AM MDT 8:44 PM MDT
Astronomical Twilight 4:52 AM MDT 9:17 PM MDT
Moon 5:47 PM MDT (4/23) 4:48 AM MDT (4/23)
Length of Visible Light 14h 14m
Length of Day
13h 21m
Waxing Gibbous, 94% of the Moon is Illuminated
Apr 23
Waxing Gibbous
Apr 25
Full
May 2
Last Quarter
May 9
New
May 17
First Quarter

Hourly Weather History & Observations

Time (MDT) Temp. Windchill Dew Point Humidity Pressure Visibility Wind Dir Wind Speed Gust Speed Precip Events Conditions
12:52 AM 66.0 °F - 14.0 °F 13% 29.67 in 10.0 mi West 15.0 mph 21.9 mph N/A   Partly Cloudy
1:52 AM 63.0 °F - 14.0 °F 15% 29.67 in 10.0 mi South 8.1 mph 18.4 mph N/A   Partly Cloudy
2:52 AM 63.0 °F - 15.1 °F 16% 29.68 in 10.0 mi Variable 4.6 mph 20.7 mph N/A   Partly Cloudy
3:52 AM 59.0 °F - 15.1 °F 18% 29.69 in 10.0 mi South 6.9 mph - N/A   Partly Cloudy
4:52 AM 54.0 °F - 15.1 °F 22% 29.70 in 10.0 mi SE 6.9 mph - N/A   Partly Cloudy
5:52 AM 51.1 °F - 18.0 °F 27% 29.72 in 10.0 mi Variable 6.9 mph - N/A   Mostly Cloudy
6:52 AM 51.1 °F - 25.0 °F 36% 29.75 in 10.0 mi NNW 9.2 mph - N/A   Scattered Clouds
7:52 AM 48.0 °F - 28.9 °F 48% 29.80 in 10.0 mi NE 8.1 mph - N/A   Scattered Clouds
8:52 AM 53.1 °F - 27.0 °F 37% 29.79 in 10.0 mi ENE 9.2 mph - N/A   Partly Cloudy
9:52 AM 55.0 °F - 28.0 °F 35% 29.79 in 10.0 mi North 9.2 mph - N/A   Partly Cloudy
10:52 AM 59.0 °F - 26.1 °F 28% 29.78 in 10.0 mi North 15.0 mph - N/A   Partly Cloudy
11:52 AM 62.1 °F - 25.0 °F 24% 29.76 in 10.0 mi North 15.0 mph - N/A   Partly Cloudy
12:52 PM 64.9 °F - 21.9 °F 19% 29.73 in 10.0 mi North 8.1 mph - N/A   Scattered Clouds
1:52 PM 68.0 °F - 21.9 °F 17% 29.70 in 10.0 mi Calm Calm - N/A   Mostly Cloudy
2:52 PM 64.9 °F - 19.9 °F 18% 29.71 in 10.0 mi North 19.6 mph 27.6 mph N/A   Overcast
3:52 PM 62.1 °F - 21.0 °F 21% 29.77 in 10.0 mi North 17.3 mph 27.6 mph N/A   Overcast
4:52 PM 66.9 °F - 19.0 °F 16% 29.75 in 10.0 mi WNW 21.9 mph 33.4 mph N/A   Mostly Cloudy
5:05 PM 64.4 °F - 17.6 °F 16% 29.93 in 10.0 mi NW 23.0 mph 40.3 mph N/A   Mostly Cloudy
5:52 PM 66.0 °F - 10.0 °F 11% 29.80 in 10.0 mi NW 17.3 mph 26.5 mph N/A   Scattered Clouds
6:52 PM 63.0 °F - -6.0 °F 6% 29.84 in 10.0 mi North 19.6 mph 28.8 mph N/A   Partly Cloudy
7:52 PM 57.9 °F - -11.9 °F 5% 29.91 in 10.0 mi NNW 18.4 mph 28.8 mph N/A   Partly Cloudy
8:52 PM 55.0 °F - -14.1 °F 5% 29.94 in 10.0 mi North 13.8 mph 23.0 mph N/A   Clear
9:52 PM 50.0 °F - 12.9 °F 23% 29.99 in 10.0 mi East 16.1 mph - N/A   Clear
10:52 PM 44.1 °F 34.4 °F 18.0 °F 35% 30.00 in 10.0 mi East 27.6 mph 35.7 mph N/A   Clear
11:52 PM 43.0 °F 33.8 °F 17.1 °F 35% 30.01 in 10.0 mi East 23.0 mph - N/A   Clear